RYR916 LZIB-LJLJ

Flight info

Callsign RYR916
Flight time 0h 39m
Altitude 26000
Route TOVKA DCT RADLY
Aircraft B738/M-SDE2E3FGHIRWXY/LB1

Departure

Time 2026-04-27 15:50
Airport M. R. Štefánik Airport (LZIB)

Arrival

Time 2026-04-27 16:30
Airport Ljubljana Jože Pučnik Airport (LJLJ)
Time Latitude Longitude Altitude Speed Heading
2026-04-27 15:36 48.16805 17.19932 443 ft 0 kts 318°
2026-04-27 15:44 48.16805 17.19933 470 ft 2 kts 318°
2026-04-27 15:44 48.16791 17.19951 429 ft 3 kts 318°
2026-04-27 15:44 48.16777 17.19970 427 ft 3 kts 318°
2026-04-27 15:45 48.16772 17.19976 427 ft 0 kts 318°
2026-04-27 15:46 48.16775 17.19974 427 ft 4 kts 328°
2026-04-27 15:46 48.16829 17.20035 438 ft 14 kts 50°
2026-04-27 15:47 48.16834 17.20180 437 ft 18 kts 125°
2026-04-27 15:47 48.16736 17.20342 437 ft 18 kts 125°
2026-04-27 15:47 48.16783 17.20470 436 ft 18 kts 48°
2026-04-27 15:47 48.16895 17.20637 442 ft 23 kts 47°
2026-04-27 15:48 48.17003 17.20810 436 ft 22 kts 49°
2026-04-27 15:48 48.17079 17.20782 442 ft 14 kts 312°
2026-04-27 15:48 48.17163 17.20647 443 ft 20 kts 314°
2026-04-27 15:49 48.17355 17.20357 443 ft 19 kts 319°
2026-04-27 15:49 48.17473 17.20302 440 ft 18 kts 15°
2026-04-27 15:49 48.17544 17.20419 443 ft 11 kts 86°
2026-04-27 15:49 48.17533 17.20457 431 ft 4 kts 131°
2026-04-27 15:50 48.17367 17.20725 443 ft 74 kts 135°
2026-04-27 15:50 48.16837 17.21557 438 ft 143 kts 134°
2026-04-27 15:50 48.16025 17.22790 630 ft 180 kts 134°
2026-04-27 15:50 48.15104 17.24218 1138 ft 202 kts 132°
2026-04-27 15:51 48.14121 17.25811 1792 ft 220 kts 132°
2026-04-27 15:51 48.13015 17.27532 2256 ft 239 kts 133°
2026-04-27 15:51 48.11811 17.29398 2723 ft 257 kts 134°
2026-04-27 15:51 48.10760 17.31572 3126 ft 262 kts 108°
2026-04-27 15:52 48.10703 17.34249 3584 ft 261 kts 71°
2026-04-27 15:52 48.11692 17.36492 4081 ft 262 kts 44°
2026-04-27 15:52 48.13074 17.38289 4551 ft 265 kts 30°
2026-04-27 15:52 48.14825 17.38955 5005 ft 263 kts 354°
2026-04-27 15:53 48.16496 17.37977 5480 ft 260 kts 324°
2026-04-27 15:53 48.17989 17.36443 5966 ft 260 kts 326°
2026-04-27 15:53 48.19514 17.34991 6431 ft 260 kts 327°
2026-04-27 15:53 48.21047 17.33561 6869 ft 259 kts 328°
2026-04-27 15:54 48.22583 17.32151 7307 ft 259 kts 328°
2026-04-27 15:54 48.24072 17.30644 7743 ft 260 kts 316°
2026-04-27 15:54 48.25027 17.28368 8192 ft 262 kts 290°
2026-04-27 15:54 48.25322 17.25665 8655 ft 266 kts 272°
2026-04-27 15:55 48.25253 17.22872 9148 ft 270 kts 269°
2026-04-27 15:55 48.25184 17.21003 9467 ft 272 kts 269°
2026-04-27 15:55 48.25043 17.17160 10115 ft 286 kts 269°
2026-04-27 15:55 48.24939 17.14076 10589 ft 307 kts 269°
2026-04-27 15:56 48.24836 17.10775 11053 ft 326 kts 269°
2026-04-27 15:56 48.24730 17.07290 11521 ft 343 kts 269°
2026-04-27 15:56 48.24622 17.03632 11986 ft 359 kts 270°
2026-04-27 15:56 48.24708 17.01135 12270 ft 367 kts 281°
2026-04-27 15:57 48.25776 16.96235 12904 ft 381 kts 285°
2026-04-27 15:57 48.25865 16.92213 13363 ft 396 kts 261°
2026-04-27 15:57 48.24798 16.88373 13850 ft 407 kts 238°
2026-04-27 15:57 48.22767 16.85388 14285 ft 417 kts 216°
2026-04-27 15:58 48.20182 16.83347 14747 ft 422 kts 210°
2026-04-27 15:58 48.17585 16.81262 15180 ft 424 kts 212°
2026-04-27 15:58 48.15860 16.79752 15485 ft 426 kts 214°
2026-04-27 15:58 48.13353 16.77389 15919 ft 427 kts 216°
2026-04-27 15:59 48.10913 16.74928 16367 ft 428 kts 218°
2026-04-27 15:59 48.08443 16.72328 16830 ft 429 kts 219°
2026-04-27 15:59 48.06019 16.69715 17289 ft 431 kts 219°
2026-04-27 15:59 48.03619 16.67100 17760 ft 433 kts 219°
2026-04-27 16:00 48.01173 16.64428 18236 ft 438 kts 219°
2026-04-27 16:00 47.98751 16.61784 18693 ft 444 kts 219°
2026-04-27 16:00 47.96246 16.59055 19123 ft 448 kts 219°
2026-04-27 16:00 47.93719 16.56312 19551 ft 450 kts 219°
2026-04-27 16:01 47.91188 16.53573 19992 ft 451 kts 219°
2026-04-27 16:01 47.88640 16.50820 20435 ft 453 kts 219°
2026-04-27 16:01 47.86082 16.48061 20874 ft 455 kts 219°
2026-04-27 16:01 47.83512 16.45292 21327 ft 456 kts 219°
2026-04-27 16:02 47.80939 16.42524 21796 ft 457 kts 219°
2026-04-27 16:02 47.78359 16.39751 22268 ft 458 kts 219°
2026-04-27 16:02 47.75776 16.36979 22747 ft 460 kts 219°
2026-04-27 16:02 47.73171 16.34186 23238 ft 461 kts 219°
2026-04-27 16:03 47.70568 16.31399 23729 ft 462 kts 219°
2026-04-27 16:03 47.67959 16.28609 24142 ft 463 kts 219°
2026-04-27 16:03 47.65341 16.25812 24554 ft 464 kts 219°
2026-04-27 16:03 47.62721 16.23017 24985 ft 465 kts 219°
2026-04-27 16:04 47.60100 16.20226 25421 ft 465 kts 219°
2026-04-27 16:04 47.57468 16.17425 25858 ft 465 kts 219°
2026-04-27 16:04 47.54833 16.14624 26134 ft 469 kts 219°
2026-04-27 16:04 47.52165 16.11789 26137 ft 476 kts 219°
2026-04-27 16:05 47.49462 16.08921 26135 ft 481 kts 219°
2026-04-27 16:05 47.46726 16.06022 26146 ft 485 kts 219°
2026-04-27 16:05 47.43976 16.03115 26152 ft 488 kts 219°
2026-04-27 16:05 47.41202 16.00187 26151 ft 490 kts 219°
2026-04-27 16:06 47.38421 15.97258 26130 ft 490 kts 219°
2026-04-27 16:06 47.35647 15.94339 26120 ft 489 kts 219°
2026-04-27 16:06 47.32876 15.91427 26132 ft 488 kts 219°
2026-04-27 16:06 47.30112 15.88525 26121 ft 488 kts 219°
2026-04-27 16:07 47.27381 15.85660 26130 ft 489 kts 219°
2026-04-27 16:07 47.24574 15.82720 26131 ft 489 kts 219°
2026-04-27 16:07 47.21803 15.79820 26134 ft 489 kts 219°
2026-04-27 16:07 47.19066 15.76960 26129 ft 490 kts 219°
2026-04-27 16:08 47.16282 15.74055 26127 ft 490 kts 218°
2026-04-27 16:08 47.13515 15.71171 26102 ft 483 kts 218°
2026-04-27 16:08 47.10842 15.68399 25968 ft 461 kts 219°
2026-04-27 16:08 47.08263 15.65725 25566 ft 448 kts 219°
2026-04-27 16:09 47.05745 15.63114 25200 ft 436 kts 219°
2026-04-27 16:09 47.00910 15.58102 24477 ft 416 kts 219°
2026-04-27 16:09 46.98574 15.55682 24129 ft 407 kts 219°
2026-04-27 16:10 46.94033 15.50986 23367 ft 393 kts 219°
2026-04-27 16:10 46.89633 15.46447 22556 ft 381 kts 218°
2026-04-27 16:11 46.87485 15.44234 22152 ft 376 kts 218°
2026-04-27 16:11 46.83263 15.39893 21370 ft 367 kts 218°
2026-04-27 16:12 46.79133 15.35654 20608 ft 359 kts 218°
2026-04-27 16:12 46.77102 15.33572 20231 ft 355 kts 218°
2026-04-27 16:12 46.73096 15.29470 19492 ft 349 kts 218°
2026-04-27 16:13 46.71115 15.27444 19136 ft 346 kts 218°
2026-04-27 16:13 46.67196 15.23448 18423 ft 341 kts 218°
2026-04-27 16:13 46.65393 15.21246 18016 ft 336 kts 230°
2026-04-27 16:14 46.62880 15.15701 17227 ft 325 kts 246°
2026-04-27 16:14 46.60937 15.09830 16456 ft 320 kts 247°
2026-04-27 16:15 46.59018 15.04029 15700 ft 317 kts 247°
2026-04-27 16:15 46.57107 14.98317 14958 ft 314 kts 247°
2026-04-27 16:16 46.55183 14.92603 14221 ft 311 kts 247°
2026-04-27 16:16 46.53302 14.87035 13489 ft 307 kts 247°
2026-04-27 16:17 46.51408 14.81443 12671 ft 305 kts 247°
2026-04-27 16:17 46.49558 14.75987 11922 ft 302 kts 246°
2026-04-27 16:18 46.47742 14.70662 11153 ft 286 kts 246°
2026-04-27 16:18 46.45776 14.65642 10429 ft 291 kts 227°
2026-04-27 16:19 46.44069 14.64127 10110 ft 289 kts 199°
2026-04-27 16:19 46.42083 14.63812 9716 ft 288 kts 176°
2026-04-27 16:20 46.36351 14.66147 8492 ft 281 kts 166°
2026-04-27 16:20 46.34461 14.66945 8023 ft 284 kts 167°
2026-04-27 16:20 46.30735 14.68523 7136 ft 272 kts 167°
2026-04-27 16:21 46.28943 14.69272 6671 ft 266 kts 167°
2026-04-27 16:21 46.23713 14.71548 5350 ft 259 kts 155°
2026-04-27 16:22 46.22364 14.73194 4909 ft 255 kts 131°
2026-04-27 16:22 46.20079 14.77116 4073 ft 252 kts 131°
2026-04-27 16:22 46.18945 14.79034 4020 ft 254 kts 131°
2026-04-27 16:23 46.17778 14.80911 4014 ft 246 kts 139°
2026-04-27 16:23 46.14859 14.82263 4003 ft 214 kts 179°
2026-04-27 16:23 46.13406 14.81728 4020 ft 221 kts 204°
2026-04-27 16:24 46.12027 14.80712 4010 ft 223 kts 207°
2026-04-27 16:24 46.09428 14.78360 3989 ft 221 kts 229°
2026-04-27 16:25 46.09034 14.74117 3996 ft 221 kts 282°
2026-04-27 16:25 46.09868 14.70180 3976 ft 198 kts 302°
2026-04-27 16:26 46.11554 14.67028 3994 ft 198 kts 305°
2026-04-27 16:26 46.13180 14.63814 3909 ft 200 kts 306°
2026-04-27 16:27 46.14846 14.60535 3434 ft 203 kts 307°
2026-04-27 16:27 46.17134 14.56038 2712 ft 164 kts 306°
2026-04-27 16:28 46.18437 14.53470 2258 ft 154 kts 307°
2026-04-27 16:28 46.19703 14.50990 1851 ft 153 kts 307°
2026-04-27 16:29 46.21644 14.47181 1228 ft 147 kts 308°
2026-04-27 16:30 46.22561 14.45413 1251 ft 32 kts 331°
2026-04-27 16:30 46.22879 14.45350 1259 ft 18 kts 40°
2026-04-27 16:31 46.23003 14.45464 1261 ft 0 kts 35°
2026-04-27 16:35 46.23003 14.45463 1261 ft 0 kts 35°